Weather Roundup
Issued by NWS

Home | Current Version | Previous Version | Text Only | Print | Product List | Glossary On
Versions: 1 2 3 4 5 6 7 8 9 10 11 12 13 14 15 16 17 18 19 20 21 22 23 24 25 26 27 28 29 30 31 32 33 34 35 36 37 38 39 40 41 42 43 44 45 46 47 48 49 50
780
NZUS93 KARX 202110
HRRWXR

CURRENT HOURLY OBSERVATIONS ACROSS
MUCH OF THE UPPER MISSISSIPPI VALLEY
NATIONAL WEATHER SERVICE LA CROSSE WI
300 PM CST FRI JAN 20 2017


...SOUTHEAST MINNESOTA...


CITY           SKY/WX    TMP DP  RH WIND       PRES   REMARKS
ROCHESTER      CLOUDY    34  34 100 SE8       29.55R FOG     WCI  27
ROCHESTER/MAYO CLOUDY    36  36 100 SE7       29.55S WCI  30
WINONA         FOG       36  36 100 S3        29.60R VSB 1
AUSTIN         FOG       34  34 100 SE3       29.55R VSB<1/4
ALBERT LEA     FOG       36  36 100 S5        29.53S VSB 1/2 WCI  32
DODGE CENTER   FOG       34  34 100 CALM      29.54R VSB<1/4
PRESTON        FOG       34  34  98 SE5       29.57R VSB 3/4 WCI  30
OWATONNA       FOG       36  34  93 SE5       29.55R VSB 3/4 WCI  32
FARIBAULT      CLOUDY    36  36 100 SE8       29.55R FOG     WCI  29
$$

...ELSEWHERE IN MINNESOTA...


CITY           SKY/WX    TMP DP  RH WIND       PRES   REMARKS
MINNEAPOLIS    CLOUDY    36  34  92 SE9       29.54F FOG     WCI  29
INTNL FALLS    LGT RAIN  37  34  89 SE6       29.54S WCI  32
DULUTH         LGT SNOW  34  33  96 E12       29.58R FOG     WCI  25
RED WING       FOG       36  36 100 SE6       29.57R VSB 1/4 WCI  31
REDWOOD FALLS  CLOUDY    36  34  92 SE10      29.50R FOG     WCI  28
MANKATO        CLOUDY    36  35  96 SE10      29.54R FOG     WCI  28
WORTHINGTON    FOG       37  37 100 S12       29.46S VSB 3/4 WCI  30
FAIRMONT       CLOUDY    36  36 100 SE6       29.51F FOG     WCI  31
$$

...SOUTHWEST WISCONSIN...


CITY           SKY/WX    TMP DP  RH WIND       PRES   REMARKS
LA CROSSE      CLOUDY    41  36  82 SE8       29.59R
PRAIRIE DU CHI CLOUDY    38  37  97 CALM      29.59S FOG
BOSCOBEL       FOG       39  38  96 NE3       29.59S VSB 1
LONE ROCK      FOG       37  36  96 E8        29.60R VSB 3/4 WCI  31
PLATTEVILLE    CLOUDY    38  38 100 E7        29.58S VSB<1/4 WCI  32
FORT MC COY    CLOUDY    35  35  99 E7        29.60S FOG     WCI  29
CAMP DOUGLAS   CLOUDY    36  36 100 E7        29.59F FOG     WCI  30
MAUSTON-NEW LI FOG       36  36  99 E6        29.59F VSB 1   WCI  31
VIROQUA        CLOUDY    35  35 100 E7        29.57R VSB 3/4 WCI  30
WIS DELLS      FOG       35  35  99 E7        29.60S VSB 3/4 WCI  29
$$

...ELSEWHERE IN WISCONSIN...


CITY           SKY/WX    TMP DP  RH WIND       PRES   REMARKS
MILWAUKEE      FOG       38  37  97 E9        29.63S VSB 1/4 WCI  31
MADISON        DRZL/FOG  37  37 100 E6        29.61S VSB 1/8 WCI  32
GREEN BAY      CLOUDY    35  35 100 NE12      29.64F FOG     WCI  27
EAU CLAIRE     CLOUDY    36  35  96 E8        29.57F FOG     WCI  30
BLACK RVR FLS  CLOUDY    37  37 100 E5        29.58F FOG     WCI  34
MEDFORD        RAIN      34  34  98 SE3       29.60S
WAUSAU         LGT RAIN  34  33  96 E7        29.62R WCI  28
WIS RAPIDS     CLOUDY    35  35 100 E7        29.62S FOG     WCI  29
MARSHFIELD     CLOUDY    35  33  92 SE10      29.59F FOG     WCI  27
RICE LAKE      FOG       36  35  97 E7        29.60R VSB 1   WCI  30
$$

...NORTHEAST IOWA...


CITY           SKY/WX    TMP DP  RH WIND       PRES   REMARKS
WATERLOO       CLOUDY    39  37  92 MISG      29.56R FOG
DUBUQUE        FOG       38  38 100 SE6       29.57R VSB<1/4 WCI  33
DECORAH        FOG       36  36 100 E6        29.55S VSB<1/4 WCI  31
MASON CITY     FOG       34  34 100 SE5       29.54F VSB<1/4 WCI  30
CHARLES CITY   FOG       36  36 100 E5        29.55S VSB<1/4 WCI  32
OELWEIN        FOG       36  36 100 SE6       29.57R VSB<1/4 WCI  31
$$

...ELSEWHERE IN IOWA...


CITY           SKY/WX    TMP DP  RH WIND       PRES   REMARKS
DES MOINES     CLOUDY    43  41  93 SE7       29.52F FOG
IOWA CITY      CLOUDY    43  40  89 SE8       29.59R
FORT DODGE     CLOUDY    37  36  93 SE5       29.52S WCI  34
MARSHALLTOWN   CLOUDY    39  39 100 SE8       29.53F FOG     WCI  33
CEDAR RAPIDS   CLOUDY    40  39  97 S6        29.56R FOG
$$

...NORTHERN ILLINOIS...


CITY           SKY/WX    TMP DP  RH WIND       PRES   REMARKS
CHICAGO-OHARE  CLOUDY    41  39  93 SE3       29.62R FOG
CHICAGO-MIDWAY CLOUDY    42  39  89 SE5       29.63R FOG
MOLINE         CLOUDY    45  42  89 S7        29.59R
ROCKFORD       FOG       41  39  93 SE7       29.63R VSB 1
PEORIA         CLOUDY    47  46  97 S8        29.61R
$$

NOTE: "FAIR" INDICATES FEW OR NO CLOUDS BELOW 12,000 FEET WITH NO
SIGNIFICANT WEATHER AND/OR OBSTRUCTIONS TO VISIBILITY. WIND
SPEEDS ARE IN MILES-PER-HOUR.




USA.gov is the U.S. government's official web portal to all federal, state and local government web resources and services.